Wind_Speed
15 14 13 13 12 12 10 10 9 8 8 9 9 9 8 8 9 11 11 8 7 10 12 10 8 7 4 4 4 6 8 10 12 16 18 18 16 14 14 14 14 14 14 14 14 15 18
15 15 15 15 14 12 11 11 10 10 10 10 10 10 9 9 8 7 10 10 9 10 13 11 10 10 8 6 7 8 10 12 14 16 17 16 14 15 15 14 15 16 17 17 16 17 18
14 14 15 14 12 12 12 13 12 11 12 11 11 9 9 9 10 9 8 8 10 11 15 14 12 12 10 9 10 11 13 16 17 16 18 18 16 15 15 15 16 16 17 17 16 17 16
16 15 14 13 13 13 14 13 13 12 11 11 10 10 10 10 10 11 12 9 10 12 15 16 16 15 14 13 14 14 16 17 17 17 19 20 19 15 14 15 17 18 16 16 16 18 20
19 20 19 18 17 15 13 12 12 12 11 11 12 11 11 9 9 11 13 14 13 14 15 18 20 20 17 17 17 17 17 19 20 20 21 21 20 18 17 18 18 18 18 19 19 22 23
19 19 19 19 19 18 17 16 15 15 14 14 13 11 11 12 12 13 14 16 17 17 17 20 22 23 21 20 19 19 20 21 21 21 21 20 20 19 19 17 17 19 21 24 25 27 27
19 19 19 19 19 19 18 17 17 15 15 15 14 13 13 14 14 15 17 17 16 16 19 19 21 24 24 23 23 23 23 23 23 23 23 22 21 20 21 22 22 23 26 29 32 34 35
13 16 17 17 18 18 17 16 17 17 16 15 15 15 15 16 17 17 17 16 14 14 15 19 21 23 23 25 26 25 26 26 25 25 25 24 24 23 23 24 26 27 29 33 36 39 41
13 13 15 16 17 17 17 17 17 17 17 17 17 16 17 16 17 17 17 18 16 15 14 16 18 20 21 24 26 27 27 28 28 27 27 25 25 25 27 28 30 31 34 37 41 44 45
16 15 14 15 16 18 18 19 18 19 19 19 19 18 17 16 15 14 15 16 16 17 15 17 19 21 23 25 27 28 28 28 28 29 27 27 27 28 30 31 34 36 37 39 42 46 48
21 20 18 16 16 16 16 17 18 19 19 17 16 18 17 16 15 16 16 16 15 14 15 14 16 18 22 24 25 26 27 29 30 29 29 30 31 32 33 35 37 39 40 43 45 48 51
26 25 23 21 19 18 18 17 16 16 16 17 15 15 16 17 17 16 16 15 14 15 15 14 15 17 20 23 24 26 27 27 27 28 29 32 33 34 35 37 40 42 44 46 49 51 56
29 29 28 26 24 23 22 21 20 18 18 18 18 17 18 18 19 19 17 16 15 16 18 17 18 20 20 22 24 25 25 24 27 32 32 36 38 39 40 43 45 46 48 49 53 54 56
36 32 29 27 26 26 27 26 24 23 22 20 20 19 20 21 20 20 20 20 19 19 20 19 19 18 20 24 25 27 28 30 33 37 41 41 42 44 44 45 46 46 47 48 55 56 57
40 34 30 27 26 28 29 28 29 28 26 24 23 24 24 23 23 23 23 23 22 23 24 25 24 26 24 27 32 33 34 35 36 37 40 43 47 50 50 48 47 50 51 52 54 57 61
39 37 36 34 31 32 31 32 30 30 30 28 27 28 28 27 28 28 26 26 27 28 29 29 29 31 31 31 34 36 38 38 41 41 43 47 51 52 50 50 50 52 54 54 55 60 62
36 44 44 42 39 38 34 33 34 33 32 30 29 30 31 33 32 31 31 31 32 31 33 34 34 36 37 38 39 40 41 43 46 48 51 52 54 54 54 55 56 55 57 56 54 57 56
42 39 40 45 43 41 41 37 37 37 37 34 31 32 32 32 35 36 35 36 36 36 38 41 40 40 41 42 44 45 46 48 51 53 56 56 59 58 58 58 58 58 57 56 55 54 56
53 44 44 44 40 42 45 41 41 41 40 40 37 35 36 37 38 39 41 40 40 40 41 42 43 41 42 46 50 52 53 53 54 57 58 59 61 59 60 60 59 57 56 52 50 51 54
56 47 48 44 44 43 44 43 43 42 44 42 44 43 42 40 38 40 44 44 43 43 43 44 46 45 48 49 51 54 56 58 59 59 59 60 60 58 58 56 57 57 56 52 50 53 58
65 66 62 54 50 50 51 51 47 49 50 49 48 46 44 45 41 40 43 45 44 44 42 41 44 46 49 51 52 55 57 58 57 57 56 57 58 57 56 55 56 54 49 49 53 59 64
67 64 64 59 58 56 55 55 50 52 51 53 53 50 45 46 45 46 44 42 44 43 44 45 49 51 51 51 51 53 53 55 54 50 53 55 55 55 56 54 50 49 48 53 59 66 68
65 62 61 58 58 60 56 59 56 52 50 54 52 54 53 54 50 50 45 43 44 42 46 54 56 57 58 59 58 54 55 48 47 51 53 54 55 54 55 50 49 49 53 58 62 68 73
65 58 56 54 52 49 50 49 47 46 48 49 49 49 51 51 49 41 40 42 45 48 54 56 56 58 54 53 53 50 45 48 50 53 56 55 51 49 49 48 51 56 56 63 68 72 74
62 58 57 53 52 51 50 49 48 51 52 48 48 49 50 53 51 49 50 48 50 50 53 55 49 48 45 38 48 44 46 49 54 54 53 48 47 48 50 50 55 58 64 67 70 73 74
55 54 54 52 51 52 51 51 52 55 53 53 50 50 52 51 52 52 46 43 48 51 49 34 34 40 45 47 48 49 49 52 55 55 51 47 46 47 53 58 61 63 66 70 74 72 74
49 51 52 52 50 50 49 50 52 51 50 50 49 49 48 51 47 46 42 44 49 41 36 41 45 45 45 46 48 50 51 53 51 48 44 43 46 52 57 62 64 66 70 72 73 74 75
44 45 46 47 45 46 51 50 50 49 51 48 49 51 51 50 50 47 47 43 42 44 46 48 49 47 48 48 49 49 52 48 45 43 42 45 50 55 60 64 67 69 70 71 72 72 71
40 41 42 43 45 47 46 48 48 46 49 48 50 49 49 50 48 49 51 49 48 52 56 56 48 47 48 48 48 49 46 42 39 41 45 52 54 59 62 65 67 69 69 70 69 67 65
Wind_Direction
219 222 226 232 244 252 257 268 276 280 282 287 293 295 300 303 314 329 329 320 302 213 192 192 194 204 225 267 316 333 334 336 331 332 325 321 316 308 300 293 281 272 271 271 271 271 272
221 226 233 240 246 256 266 270 273 275 278 283 287 288 285 277 289 311 326 320 307 230 213 214 217 233 243 270 295 311 318 321 320 324 328 325 320 315 305 291 284 281 275 275 273 273 277
234 237 241 245 250 258 267 272 274 279 282 285 285 287 283 272 281 296 306 306 293 249 234 231 234 244 251 264 279 293 309 315 319 324 326 325 320 317 309 296 286 279 276 276 274 269 268
231 235 240 248 257 267 274 278 283 284 285 284 285 292 291 285 273 278 291 289 283 282 260 248 247 251 256 265 274 289 301 308 314 320 322 319 314 305 300 296 292 285 278 277 277 281 287
239 242 241 245 251 258 267 272 276 276 278 280 281 286 285 275 274 278 284 289 280 278 273 258 253 255 259 267 276 288 296 306 311 314 319 319 310 299 291 293 287 281 277 273 274 278 284
235 239 240 244 247 253 258 263 265 266 266 269 275 278 285 287 287 287 286 288 286 281 274 267 261 257 259 266 274 284 291 299 304 307 314 317 312 303 298 290 284 280 280 280 282 284 285
238 238 242 246 247 250 256 258 262 264 268 272 275 277 280 284 289 291 293 292 287 283 280 272 267 264 260 265 270 279 286 293 299 304 309 309 308 304 296 290 283 280 280 281 282 283 283
242 243 242 243 249 253 253 257 261 263 266 272 280 285 284 289 293 296 297 292 286 278 272 272 271 270 265 265 272 280 285 290 294 297 302 303 302 303 299 293 290 287 284 283 283 284 285
256 253 252 251 253 256 259 259 263 268 271 274 279 282 284 290 295 301 304 304 299 286 276 267 268 268 268 268 272 276 281 286 291 294 297 297 297 296 296 294 291 290 288 285 285 284 283
264 265 261 260 261 262 264 267 268 269 271 276 279 280 284 288 296 300 304 306 311 309 296 273 268 266 265 268 271 277 280 283 287 292 292 293 293 292 293 292 290 290 288 287 288 287 287
259 260 262 266 265 263 263 266 270 273 274 273 280 284 286 290 295 298 302 306 312 314 311 298 292 285 279 275 275 276 278 282 285 288 291 293 293 294 295 295 294 292 291 289 289 288 286
258 259 261 263 267 267 269 264 260 266 271 275 277 283 289 291 295 295 297 299 303 309 308 300 294 287 282 279 280 279 281 284 288 291 293 293 294 294 296 297 295 294 292 290 289 288 287
254 253 254 256 261 267 269 269 267 265 269 274 280 287 290 291 294 297 296 292 292 293 299 299 293 289 288 286 284 285 287 289 290 293 293 294 297 299 299 299 297 295 293 292 291 290 291
253 251 253 257 260 261 263 266 269 270 270 274 282 289 291 292 292 293 296 295 294 289 289 291 291 292 291 290 286 289 293 296 298 300 300 301 301 299 301 299 297 293 292 291 291 292 291
246 244 247 256 261 267 264 261 263 267 270 276 283 290 291 291 291 290 291 295 297 290 292 293 294 294 296 291 290 292 293 295 296 297 298 301 303 303 301 299 299 298 295 294 293 294 293
237 241 248 250 257 265 267 263 261 259 262 270 280 288 292 298 294 291 290 289 291 290 291 292 296 297 299 297 294 293 294 297 297 298 298 300 300 300 300 299 300 297 298 297 296 293 294
227 247 250 254 259 264 263 263 261 261 260 264 274 280 284 288 293 290 290 290 291 291 293 294 294 295 298 298 296 296 297 296 298 298 298 299 300 301 301 299 300 299 298 295 293 291 292
235 236 249 251 253 256 261 264 261 261 261 259 270 282 282 283 287 289 288 287 288 290 290 289 291 292 292 292 293 295 296 296 297 298 298 299 299 300 299 299 300 299 298 297 296 296 293
234 239 246 247 248 254 258 260 264 261 259 258 268 279 283 283 285 284 286 287 289 291 289 289 290 291 291 292 294 297 298 297 297 297 298 297 297 298 297 298 300 298 297 297 295 294 296
233 235 235 238 244 246 252 254 256 256 260 265 267 277 278 279 285 287 287 287 290 290 289 289 290 293 294 296 296 296 297 297 297 297 297 297 296 295 296 296 296 297 297 296 295 297 296
240 245 241 237 239 244 250 252 253 258 263 268 271 273 276 279 281 286 285 287 287 291 293 295 296 294 294 294 294 295 296 296 295 295 295 294 294 295 296 296 296 296 295 296 298 297 297
240 244 246 242 246 248 250 256 257 258 261 268 274 275 275 278 279 285 289 291 291 292 295 299 298 296 295 294 293 293 293 292 294 296 295 294 296 295 295 295 293 292 298 298 298 299 300
242 245 248 243 246 251 256 261 265 265 271 268 271 271 272 277 283 286 287 286 284 288 295 299 294 290 292 294 293 292 291 290 294 299 300 297 295 294 293 290 292 297 298 302 301 301 302
242 243 245 246 249 250 256 261 268 272 275 278 280 280 277 280 280 281 283 281 280 283 292 292 286 286 290 289 291 291 291 296 300 301 301 298 294 292 294 300 301 302 304 302 302 303 303
240 242 244 247 249 252 252 257 262 267 270 271 272 275 279 279 280 280 283 284 282 284 281 284 287 291 291 286 300 295 294 297 297 300 298 294 294 299 301 302 302 304 304 303 303 304 304
241 242 246 246 246 248 250 254 258 261 264 268 269 272 273 273 279 279 280 284 282 284 285 283 292 299 300 299 298 295 294 300 301 300 298 297 298 301 304 304 304 306 304 305 304 305 305
245 244 245 247 245 244 248 250 252 258 261 264 266 268 264 269 271 277 279 284 287 277 271 284 300 301 302 297 298 296 294 299 299 297 297 298 301 303 303 302 304 305 306 306 307 308 307
248 247 247 247 246 242 244 249 250 256 261 262 263 266 269 271 271 276 279 278 282 270 277 290 297 295 294 295 298 296 296 298 296 294 297 302 304 303 303 304 306 307 307 307 307 307 306
253 251 249 248 248 246 247 245 246 255 254 260 264 259 265 267 269 273 273 271 283 279 282 284 291 292 294 296 297 297 296 294 294 299 305 303 303 303 305 307 308 309 309 309 307 306 306
Height
5826 5828 5829 5830 5831 5831 5832 5832 5832 5833 5833 5833 5833 5834 5833 5833 5833 5832 5831 5830 5829 5829 5831 5831 5832 5832 5832 5832 5834 5833 5833 5832 5832 5831 5830 5828 5827 5825 5824 5825 5824 5823 5823 5823 5823 5822 5820
5823 5825 5826 5828 5829 5829 5830 5830 5831 5831 5830 5830 5831 5831 5831 5831 5831 5830 5830 5829 5828 5828 5829 5830 5831 5831 5831 5833 5832 5831 5830 5830 5829 5828 5826 5825 5824 5823 5822 5821 5821 5821 5820 5820 5820 5818 5817
5822 5823 5824 5825 5826 5827 5828 5828 5828 5828 5828 5828 5828 5829 5829 5829 5828 5828 5827 5827 5827 5827 5826 5828 5828 5829 5829 5830 5829 5829 5829 5828 5828 5826 5825 5823 5821 5820 5819 5818 5817 5816 5817 5817 5816 5813 5814
5819 5820 5821 5823 5824 5825 5825 5826 5826 5826 5826 5826 5826 5826 5826 5826 5825 5825 5825 5825 5824 5824 5825 5826 5826 5826 5827 5827 5827 5827 5827 5826 5825 5824 5822 5820 5818 5817 5816 5815 5814 5813 5814 5813 5813 5811 5812
5815 5817 5818 5819 5820 5822 5822 5822 5823 5823 5824 5824 5823 5823 5823 5823 5823 5823 5822 5822 5821 5821 5822 5823 5823 5823 5824 5824 5825 5825 5825 5824 5823 5821 5819 5817 5815 5814 5814 5813 5812 5810 5809 5809 5809 5807 5806
5810 5812 5813 5815 5816 5817 5818 5819 5820 5820 5820 5821 5821 5820 5820 5820 5820 5819 5818 5817 5817 5818 5818 5818 5819 5822 5822 5822 5822 5821 5821 5820 5819 5817 5816 5813 5811 5810 5810 5809 5808 5808 5807 5806 5804 5804 5802
5807 5808 5810 5811 5813 5813 5815 5816 5816 5817 5818 5818 5818 5817 5817 5817 5816 5815 5815 5814 5815 5815 5814 5815 5816 5816 5817 5818 5817 5817 5817 5816 5815 5813 5811 5809 5808 5807 5806 5805 5803 5803 5801 5800 5798 5797 5796
5804 5805 5806 5808 5809 5810 5811 5812 5813 5814 5814 5814 5814 5814 5813 5813 5812 5811 5811 5809 5809 5810 5810 5810 5811 5811 5812 5813 5813 5813 5813 5812 5810 5808 5806 5805 5804 5802 5801 5799 5798 5797 5795 5793 5791 5788 5786
5801 5802 5802 5803 5805 5807 5808 5809 5810 5811 5811 5811 5811 5810 5810 5809 5808 5807 5807 5806 5805 5804 5805 5805 5805 5806 5807 5808 5808 5807 5807 5805 5803 5802 5800 5799 5798 5796 5795 5793 5791 5790 5787 5784 5781 5777 5775
5798 5798 5799 5801 5802 5803 5804 5805 5806 5807 5807 5807 5807 5807 5806 5805 5806 5804 5803 5803 5802 5802 5801 5802 5801 5801 5802 5802 5802 5801 5799 5799 5797 5795 5793 5792 5790 5788 5786 5785 5783 5782 5779 5775 5771 5767 5763
5794 5796 5796 5797 5798 5799 5800 5800 5801 5802 5803 5803 5803 5803 5802 5801 5801 5800 5800 5799 5798 5798 5798 5798 5797 5797 5797 5797 5796 5794 5792 5791 5789 5788 5787 5785 5782 5780 5778 5776 5773 5771 5769 5765 5762 5758 5752
5789 5790 5792 5793 5795 5795 5796 5797 5797 5798 5799 5799 5798 5798 5799 5799 5798 5797 5795 5795 5795 5796 5793 5793 5792 5791 5791 5790 5789 5787 5786 5785 5783 5782 5779 5776 5775 5773 5770 5767 5764 5760 5757 5753 5749 5746 5739
5783 5785 5786 5787 5789 5791 5792 5793 5793 5793 5793 5794 5794 5794 5795 5794 5794 5792 5791 5791 5792 5789 5790 5789 5787 5786 5785 5785 5783 5782 5781 5779 5777 5774 5774 5770 5768 5765 5762 5758 5753 5749 5745 5741 5735 5732 5727
5776 5778 5780 5782 5783 5784 5786 5787 5788 5789 5789 5789 5789 5790 5790 5789 5788 5788 5788 5788 5786 5785 5782 5782 5781 5781 5781 5780 5779 5777 5776 5775 5772 5769 5764 5761 5758 5754 5751 5747 5742 5737 5733 5729 5720 5718 5714
5768 5771 5773 5775 5776 5777 5779 5780 5782 5783 5783 5784 5784 5785 5784 5784 5783 5782 5783 5782 5781 5780 5778 5776 5776 5775 5776 5773 5771 5769 5769 5767 5763 5760 5757 5750 5747 5742 5738 5733 5730 5725 5719 5714 5707 5703 5697
5758 5761 5764 5766 5768 5770 5772 5773 5774 5775 5776 5778 5778 5779 5779 5778 5777 5777 5776 5776 5773 5772 5771 5769 5768 5766 5765 5765 5762 5759 5757 5756 5752 5749 5744 5740 5734 5730 5727 5722 5718 5711 5706 5700 5694 5685 5680
5746 5750 5754 5757 5759 5761 5764 5766 5767 5767 5768 5769 5771 5771 5771 5771 5770 5770 5769 5768 5766 5765 5764 5762 5760 5757 5756 5754 5752 5749 5747 5744 5740 5736 5731 5727 5722 5719 5714 5709 5704 5699 5692 5686 5680 5672 5665
5737 5740 5743 5746 5749 5751 5754 5757 5758 5759 5760 5761 5761 5761 5763 5762 5762 5762 5761 5760 5760 5759 5756 5752 5750 5748 5746 5743 5740 5738 5736 5732 5728 5723 5719 5715 5708 5705 5701 5696 5690 5684 5678 5672 5664 5660 5651
5727 5729 5733 5735 5738 5740 5744 5746 5748 5750 5750 5751 5752 5753 5753 5754 5753 5752 5751 5750 5749 5748 5746 5743 5741 5738 5736 5734 5730 5727 5724 5721 5716 5711 5706 5701 5695 5691 5686 5683 5676 5669 5664 5658 5652 5646 5642
5714 5718 5721 5724 5726 5729 5732 5735 5738 5738 5739 5741 5742 5743 5745 5744 5744 5742 5741 5740 5739 5737 5735 5733 5731 5729 5726 5723 5720 5715 5712 5708 5703 5698 5693 5687 5682 5678 5672 5667 5662 5656 5651 5646 5640 5634 5628
5700 5704 5710 5712 5713 5717 5721 5724 5725 5725 5728 5730 5731 5732 5733 5733 5734 5733 5731 5730 5729 5726 5725 5722 5721 5719 5715 5711 5707 5703 5699 5695 5690 5684 5678 5671 5668 5664 5658 5653 5649 5644 5639 5633 5628 5621 5612
5684 5691 5695 5698 5702 5705 5709 5712 5715 5716 5717 5718 5719 5722 5722 5723 5724 5722 5721 5721 5718 5716 5715 5713 5710 5707 5703 5699 5694 5689 5685 5681 5677 5671 5664 5658 5654 5651 5646 5640 5635 5630 5626 5620 5614 5606 5597
5667 5674 5681 5684 5690 5693 5697 5699 5702 5704 5708 5707 5708 5709 5710 5711 5710 5710 5710 5708 5707 5706 5704 5702 5698 5694 5690 5686 5681 5676 5672 5668 5662 5658 5651 5646 5640 5635 5630 5626 5621 5618 5614 5608 5599 5589 5579
5652 5658 5665 5671 5675 5679 5683 5686 5688 5690 5694 5696 5697 5698 5700 5700 5699 5697 5696 5697 5695 5693 5691 5689 5685 5680 5676 5671 5668 5664 5661 5656 5651 5646 5640 5632 5626 5620 5617 5613 5609 5603 5598 5591 5582 5572 5562
5637 5644 5650 5656 5662 5667 5671 5673 5675 5678 5680 5683 5685 5688 5688 5688 5689 5689 5687 5686 5684 5681 5678 5674 5671 5668 5662 5660 5656 5652 5649 5644 5638 5633 5627 5620 5613 5608 5604 5600 5595 5591 5583 5575 5565 5557 5544
5623 5630 5636 5642 5649 5655 5657 5659 5664 5665 5668 5669 5672 5675 5676 5676 5677 5676 5675 5674 5672 5668 5666 5662 5658 5656 5652 5647 5643 5639 5635 5631 5625 5620 5615 5609 5604 5600 5593 5585 5580 5575 5566 5556 5547 5540 5527
5611 5618 5624 5629 5635 5641 5643 5646 5649 5651 5655 5657 5658 5661 5663 5663 5665 5664 5663 5661 5659 5656 5654 5650 5646 5643 5638 5635 5631 5627 5623 5618 5612 5607 5603 5598 5591 5585 5577 5572 5566 5557 5548 5538 5528 5521 5507
5602 5606 5611 5616 5621 5627 5630 5634 5637 5639 5641 5645 5647 5649 5651 5651 5650 5650 5650 5649 5648 5645 5643 5640 5636 5631 5626 5622 5618 5613 5609 5604 5600 5596 5592 5585 5579 5573 5566 5557 5550 5541 5532 5523 5512 5499 5489
5591 5595 5599 5603 5607 5612 5617 5622 5626 5628 5629 5632 5634 5635 5636 5637 5639 5638 5638 5637 5636 5634 5631 5626 5624 5619 5614 5610 5605 5600 5596 5592 5589 5585 5578 5573 5568 5561 5554 5544 5533 5524 5514 5504 5494 5483 5473